DW8343 Weather Reports


time (UTC)temp
F
wind
direction
speed
knots
gust
knots
rain 1hr
in
rain 24hr
in
rain mn
in
humidity
%
barometer
mb
20260904145613 86 317 0.9 3.5 0.00 0.00 0.00 66 1015.4
20260904145108 85 259 3.5 5.2 0.00 0.00 0.00 67 1015.4
20260904144604 85 221 3.5 5.2 0.00 0.00 0.00 67 1015.5
20260904144059 85 83 1.7 2.6 0.00 0.00 0.00 67 1015.3
20260904143555 84 243 2.6 6.1 0.00 0.00 0.00 69 1015.5
20260904143052 83 21 0.0 0.9 0.00 0.00 0.00 70 1015.4
20260904142548 83 271 0.9 1.7 0.00 0.00 0.00 71 1015.5
20260904142043 82 49 1.7 3.5 0.00 0.00 0.00 71 1015.4
20260904141538 82 258 2.6 5.2 0.00 0.00 0.00 71 1015.7
20260904141033 82 339 1.7 3.5 0.00 0.00 0.00 71 1015.4
20260904140533 82 75 0.0 5.2 0.00 0.00 0.00 72 1015.5
20260904140028 82 16 1.7 5.2 0.00 0.00 0.00 72 1015.6
20260904135527 81 49 1.7 2.6 0.00 0.00 0.00 72 1015.5
20260904135024 81 280 0.9 5.2 0.00 0.00 0.00 73 1015.4
20260904134519 81 301 1.7 7.0 0.00 0.00 0.00 73 1015.6
20260904134013 81 264 0.9 5.2 0.00 0.00 0.00 73 1015.5
20260904133508 80 258 0.9 3.5 0.00 0.00 0.00 75 1015.4
20260904133004 80 235 1.7 1.7 0.00 0.00 0.00 75 1015.6
20260904132503 79 229 1.7 5.2 0.00 0.00 0.00 75 1015.4
20260904131958 79 236 2.6 3.5 0.00 0.00 0.00 76 1015.3
20260904131453 78 51 1.7 1.7 0.00 0.00 0.00 77 1015.4
20260904130949 78 20 0.0 2.6 0.00 0.00 0.00 78 1015.3
20260904130447 77 183 1.7 3.5 0.00 0.00 0.00 78 1015.3
20260904125942 77 117 0.9 7.0 0.00 0.00 0.00 78 1015.2
20260904125439 77 26 1.7 3.5 0.00 0.00 0.00 79 1015.4
20260904124933 77 3 0.0 3.5 0.00 0.00 0.00 79 1015.1
20260904124429 77 269 0.9 1.7 0.00 0.00 0.00 79 1015.1
20260904123924 77 217 0.0 6.1 0.00 0.00 0.00 79 1015.1
20260904123419 77 342 0.9 2.6 0.00 0.00 0.00 80 1015.0
20260904122914 77 173 1.7 1.7 0.00 0.00 0.00 80 1014.9
20260904122414 77 132 0.9 2.6 0.00 0.00 0.00 80 1014.7
20260904121908 77 103 0.9 1.7 0.00 0.00 0.00 80 1014.9
20260904121405 77 152 1.7 2.6 0.00 0.00 0.00 80 1014.9
20260904120901 76 162 0.9 1.7 0.00 0.00 0.00 80 1014.6
20260904120357 76 307 0.9 2.6 0.00 0.00 0.00 80 1014.6
20260904115852 76 290 0.0 1.7 0.00 0.00 0.00 80 1014.6
20260904115347 76 156 0.0 1.7 0.00 0.00 0.00 80 1014.6
20260904114841 77 61 0.9 1.7 0.00 0.00 0.00 80 1014.6
20260904114336 77 23 0.9 1.7 0.00 0.00 0.00 80 1014.6
20260904113831 77 20 0.0 1.7 0.00 0.00 0.00 80 1014.7
20260904113330 77 155 0.9 1.7 0.00 0.00 0.00 80 1014.7
20260904112825 77 153 0.9 1.7 0.00 0.00 0.00 80 1014.5
20260904112321 77 288 0.9 1.7 0.00 0.00 0.00 80 1014.7
20260904111816 77 240 0.9 1.7 0.00 0.00 0.00 79 1014.6
20260904111312 77 91 1.7 1.7 0.00 0.00 0.00 79 1014.6
20260904110808 77 60 0.0 1.7 0.00 0.00 0.00 79 1014.7
20260904110307 77 32 1.7 2.6 0.00 0.00 0.00 79 1014.6
20260904105802 77 18 0.0 3.5 0.00 0.00 0.00 79 1014.5
20260904105305 77 334 0.9 1.7 0.00 0.00 0.00 79 1014.7
20260904104751 78 111 0.9 2.6 0.00 0.00 0.00 78 1014.6
20260904104247 78 19 0.9 2.6 0.00 0.00 0.00 78 1014.6
20260904103744 78 120 0.9 1.7 0.00 0.00 0.00 78 1014.6
20260904103243 78 245 0.0 1.7 0.00 0.00 0.00 78 1014.6
20260904102739 78 43 2.6 2.6 0.00 0.00 0.00 78 1014.6
20260904102234 78 69 1.7 2.6 0.00 0.00 0.00 77 1014.5
20260904101731 78 68 0.0 0.9 0.00 0.00 0.00 77 1014.5
20260904101226 78 93 0.9 2.6 0.00 0.00 0.00 76 1014.7
20260904100722 79 229 1.7 2.6 0.00 0.00 0.00 75 1014.7
20260904100218 79 20 1.7 5.2 0.00 0.00 0.00 75 1014.7
20260904095717 79 27 0.0 0.9 0.00 0.00 0.00 74 1014.8
20260904095212 79 297 0.0 0.9 0.00 0.00 0.00 73 1014.6
20260904094708 79 92 0.9 2.6 0.00 0.00 0.00 73 1014.5
20260904094203 80 151 0.9 3.5 0.00 0.00 0.00 73 1014.4
20260904093700 79 114 0.9 2.6 0.00 0.00 0.00 73 1014.6
20260904093159 79 248 0.0 2.6 0.00 0.00 0.00 74 1014.5
20260904092655 79 271 0.9 1.7 0.00 0.00 0.00 73 1014.3
20260904092151 79 102 0.0 1.7 0.00 0.00 0.00 74 1014.4
20260904091647 80 260 2.6 3.5 0.00 0.00 0.00 73 1014.6
20260904091147 80 41 0.9 0.9 0.00 0.00 0.00 72 1014.5
20260904090642 80 286 0.9 1.7 0.00 0.00 0.00 73 1014.4
20260904090138 80 252 0.0 2.6 0.00 0.00 0.00 73 1014.4
20260904085637 79 183 1.7 2.6 0.00 0.00 0.00 74 1014.5
20260904085132 80 263 0.9 1.7 0.00 0.00 0.00 74 1014.4
20260904084627 80 283 0.9 1.7 0.00 0.00 0.00 75 1014.4
20260904084124 80 183 1.7 3.5 0.00 0.00 0.00 75 1014.5
20260904083620 80 246 0.9 1.7 0.00 0.00 0.00 76 1014.5
20260904083115 80 263 0.9 1.7 0.00 0.00 0.00 76 1014.2
20260904082610 80 320 1.7 3.5 0.00 0.00 0.00 75 1014.4
20260904082106 80 259 0.9 3.5 0.00 0.00 0.00 76 1014.2
20260904081601 80 231 0.9 1.7 0.00 0.00 0.00 76 1014.2
20260904081056 80 276 0.9 1.7 0.00 0.00 0.00 75 1014.2
20260904080552 80 121 1.7 2.6 0.00 0.00 0.00 75 1014.0
20260904080048 80 1 0.0 2.6 0.00 0.00 0.00 76 1014.2
20260904075543 80 37 0.0 0.9 0.00 0.00 0.00 76 1014.1
20260904075038 80 42 0.9 2.6 0.00 0.00 0.00 76 1014.2
20260904074537 80 273 0.9 2.6 0.00 0.00 0.00 76 1014.1
20260904074032 80 224 0.9 1.7 0.00 0.00 0.00 77 1014.2
20260904073527 80 306 1.7 2.6 0.00 0.00 0.00 77 1014.3
20260904073023 80 259 1.7 2.6 0.00 0.00 0.00 77 1014.3
20260904072519 80 177 1.7 2.6 0.00 0.00 0.00 77 1014.3
20260904072014 80 242 0.0 2.6 0.00 0.00 0.00 76 1014.3
20260904071510 80 291 0.0 5.2 0.00 0.00 0.00 77 1014.2
20260904071004 80 20 0.9 2.6 0.00 0.00 0.00 77 1014.3
20260904070503 80 336 2.6 3.5 0.00 0.00 0.00 77 1014.4
20260904065957 80 241 1.7 2.6 0.00 0.00 0.00 76 1014.4
20260904065453 80 234 1.7 2.6 0.00 0.00 0.00 76 1014.4
20260904064948 80 288 2.6 5.2 0.00 0.00 0.00 76 1014.4
20260904064444 80 295 1.7 3.5 0.00 0.00 0.00 76 1014.4
20260904063939 80 76 0.0 5.2 0.00 0.00 0.00 76 1014.5
20260904063436 80 83 0.9 3.5 0.00 0.00 0.00 76 1014.5
20260904062931 80 63 0.9 5.2 0.00 0.00 0.00 76 1014.4
20260904062427 80 78 0.0 5.2 0.00 0.00 0.00 76 1014.5
20260904061922 81 272 0.9 2.6 0.00 0.00 0.00 76 1014.5
20260904061419 81 13 0.9 2.6 0.00 0.00 0.00 75 1014.6
20260904060915 81 222 2.6 5.2 0.00 0.00 0.00 75 1014.4
20260904060411 81 256 1.7 2.6 0.00 0.00 0.00 75 1014.6
20260904055906 81 338 2.6 5.2 0.00 0.00 0.00 75 1014.7
20260904055401 81 193 1.7 2.6 0.00 0.00 0.00 75 1014.7
20260904054856 81 67 1.7 2.6 0.00 0.00 0.00 74 1014.6
20260904054352 81 16 2.6 3.5 0.00 0.00 0.00 74 1014.4
20260904053848 81 82 1.7 1.7 0.00 0.00 0.00 74 1014.4
20260904053346 82 3 2.6 3.5 0.00 0.00 0.00 74 1014.5
20260904052843 82 325 0.9 1.7 0.00 0.00 0.00 73 1014.4
20260904052339 82 227 1.7 5.2 0.00 0.00 0.00 73 1014.4
20260904051834 82 230 0.9 2.6 0.00 0.00 0.00 73 1014.4
20260904051325 82 293 0.9 2.6 0.00 0.00 0.00 73 1014.2
20260904050819 82 176 1.7 5.2 0.00 0.00 0.00 72 1014.2
20260904050316 82 87 1.7 1.7 0.00 0.00 0.00 72 1014.4
20260904045810 82 273 0.9 2.6 0.00 0.00 0.00 72 1014.3
20260904045307 82 224 0.0 5.2 0.00 0.00 0.00 72 1014.4
20260904044800 82 345 0.0 3.5 0.00 0.00 0.00 72 1014.2
20260904044257 82 186 0.9 3.5 0.00 0.00 0.00 71 1014.3
20260904043752 82 165 0.9 5.2 0.00 0.00 0.00 71 1014.4
20260904043249 82 282 0.9 2.6 0.00 0.00 0.00 71 1014.5
20260904042743 83 39 0.9 2.6 0.00 0.00 0.00 71 1014.4
20260904042240 83 34 2.6 3.5 0.00 0.00 0.00 70 1014.5
20260904041739 83 69 1.7 3.5 0.00 0.00 0.00 70 1014.5
20260904041236 83 64 0.9 5.2 0.00 0.00 0.00 70 1014.5
20260904040731 83 29 0.0 2.6 0.00 0.00 0.00 69 1014.5
20260904040227 83 210 0.9 3.5 0.00 0.00 0.00 69 1014.5
20260904035723 83 36 2.6 7.8 0.00 0.00 0.00 69 1014.5
20260904035218 84 16 0.9 2.6 0.00 0.00 0.00 68 1014.7
20260904034717 84 259 1.7 2.6 0.00 0.00 0.00 68 1014.6
20260904034213 84 78 0.0 2.6 0.00 0.00 0.00 68 1014.8
20260904033708 84 313 0.9 2.6 0.00 0.00 0.00 67 1014.5
20260904033205 84 100 1.7 2.6 0.00 0.00 0.00 67 1014.5
20260904032701 85 313 0.9 6.1 0.00 0.00 0.00 66 1014.7
20260904032159 85 201 0.0 2.6 0.00 0.00 0.00 66 1014.3
20260904031654 85 116 2.6 2.6 0.00 0.00 0.00 66 1014.6
20260904031149 85 39 0.9 1.7 0.00 0.00 0.00 66 1014.6
20260904030645 85 306 2.6 3.5 0.00 0.00 0.00 65 1014.4
20260904030140 85 76 1.7 1.7 0.00 0.00 0.00 65 1014.4
20260904025636 85 2 0.9 3.5 0.00 0.00 0.00 65 1014.4
20260904025131 85 40 0.9 1.7 0.00 0.00 0.00 65 1014.2
20260904024626 86 75 2.6 3.5 0.00 0.00 0.00 64 1014.5
20260904024122 86 239 0.9 6.1 0.00 0.00 0.00 64 1014.1
20260904023617 86 280 0.9 1.7 0.00 0.00 0.00 64 1014.1
20260904023108 86 27 1.7 5.2 0.00 0.00 0.00 64 1014.0
20260904022608 86 252 0.9 2.6 0.00 0.00 0.00 63 1014.0
20260904022105 86 290 0.0 3.5 0.00 0.00 0.00 63 1013.9
20260904021600 87 148 1.7 6.1 0.00 0.00 0.00 62 1013.8
20260904021055 87 116 0.0 5.2 0.00 0.00 0.00 62 1013.7
20260904020550 87 279 1.7 5.2 0.00 0.00 0.00 61 1013.5
20260904020044 87 141 1.7 8.7 0.00 0.00 0.00 61 1013.7
20260904015539 87 241 2.6 5.2 0.00 0.00 0.00 60 1013.7
20260904015038 87 168 0.9 2.6 0.00 0.00 0.00 60 1013.5
20260904014532 87 96 1.7 3.5 0.00 0.00 0.00 60 1013.4
20260904014028 87 47 1.7 3.5 0.00 0.00 0.00 60 1013.2
20260904013524 88 149 1.7 3.5 0.00 0.00 0.00 59 1013.4
20260904013020 88 85 2.6 5.2 0.00 0.00 0.00 59 1013.3
20260904012515 88 228 4.3 6.1 0.00 0.00 0.00 59 1013.3
20260904012015 88 248 1.7 6.1 0.00 0.00 0.00 59 1013.2
20260904011509 89 90 1.7 2.6 0.00 0.00 0.00 59 1012.8
20260904011004 89 59 0.9 6.1 0.00 0.00 0.00 59 1012.8
20260904010500 89 258 2.6 3.5 0.00 0.00 0.00 58 1012.7
20260904005955 89 38 1.7 6.1 0.00 0.00 0.00 58 1012.8
20260904005450 89 5 3.5 7.0 0.00 0.00 0.00 57 1012.6
20260904004945 90 312 4.3 7.8 0.00 0.00 0.00 56 1012.4
20260904004442 90 158 0.9 3.5 0.00 0.00 0.00 56 1012.5
20260904003941 90 76 3.5 5.2 0.00 0.00 0.00 56 1012.4
20260904003438 90 7 0.9 6.1 0.00 0.00 0.00 55 1012.6
20260904002932 91 173 1.7 6.1 0.00 0.00 0.00 55 1012.5
20260904002429 91 66 1.7 7.0 0.00 0.00 0.00 54 1012.3
20260904001927 91 10 3.5 8.7 0.00 0.00 0.00 55 1012.1
20260904001423 91 287 0.9 6.1 0.00 0.00 0.00 55 1012.4
20260904000918 91 305 1.7 5.2 0.00 0.00 0.00 54 1012.5
20260904000418 91 232 1.7 5.2 0.00 0.00 0.00 54 1012.5
20260903235913 91 59 2.6 5.2 0.00 0.00 0.00 54 1012.3
20260903235409 92 63 4.3 7.8 0.00 0.00 0.00 53 1012.6
20260903234908 92 87 0.9 2.6 0.00 0.00 0.00 53 1012.5
20260903234404 92 155 1.7 6.1 0.00 0.00 0.00 53 1012.3
20260903233900 92 43 3.5 6.1 0.00 0.00 0.00 53 1012.3
20260903233356 92 243 1.7 7.0 0.00 0.00 0.00 53 1012.3
20260903232855 92 275 1.7 7.8 0.00 0.00 0.00 52 1012.3
20260903232351 93 118 2.6 5.2 0.00 0.00 0.00 52 1012.3
20260903231850 93 44 1.7 6.1 0.00 0.00 0.00 52 1012.1
20260903231345 93 260 0.9 6.1 0.00 0.00 0.00 52 1012.2
20260903230841 93 270 1.7 6.1 0.00 0.00 0.00 52 1012.0
20260903230336 93 143 2.6 11.3 0.00 0.00 0.00 52 1012.0
20260903225833 93 350 1.7 9.6 0.00 0.00 0.00 51 1011.9
20260903225328 94 91 5.2 8.7 0.00 0.00 0.00 51 1012.1
20260903224824 94 36 2.6 7.0 0.00 0.00 0.00 52 1012.1
20260903224320 94 26 1.7 3.5 0.00 0.00 0.00 50 1012.1
20260903223816 94 12 0.9 2.6 0.00 0.00 0.00 50 1012.0
20260903223314 94 102 0.9 5.2 0.00 0.00 0.00 50 1011.9
20260903222809 95 138 0.9 5.2 0.00 0.00 0.00 49 1012.1
20260903222308 95 63 0.0 2.6 0.00 0.00 0.00 49 1012.1
20260903221803 95 240 3.5 5.2 0.00 0.00 0.00 48 1012.1
20260903221303 95 49 3.5 6.1 0.00 0.00 0.00 49 1012.0
20260903220800 95 45 0.9 2.6 0.00 0.00 0.00 48 1012.1
20260903220255 95 308 1.7 7.0 0.00 0.00 0.00 49 1012.2
20260903215753 95 51 0.9 5.2 0.00 0.00 0.00 50 1012.3
20260903215250 94 277 1.7 5.2 0.00 0.00 0.00 49 1012.4
20260903214748 95 21 3.5 9.6 0.00 0.00 0.00 49 1012.5
20260903214244 97 223 2.6 6.1 0.00 0.00 0.00 46 1012.3
20260903213738 96 22 1.7 3.5 0.00 0.00 0.00 48 1012.2
20260903213234 96 53 1.7 6.1 0.00 0.00 0.00 49 1012.3
20260903212729 96 311 0.9 5.2 0.00 0.00 0.00 48 1012.6
20260903212226 96 51 1.7 8.7 0.00 0.00 0.00 48 1012.3
20260903211719 96 250 3.5 5.2 0.00 0.00 0.00 48 1012.5
20260903211216 96 42 1.7 6.1 0.00 0.00 0.00 48 1012.4
20260903210712 97 282 1.7 2.6 0.00 0.00 0.00 46 1012.5
20260903210207 96 44 5.2 9.6 0.00 0.00 0.00 47 1012.4
20260903205707 96 17 1.7 3.5 0.00 0.00 0.00 47 1012.6
20260903205206 97 42 1.7 7.0 0.00 0.00 0.00 48 1012.7
20260903204702 96 136 1.7 6.1 0.00 0.00 0.00 47 1012.7
20260903204158 97 65 4.3 9.6 0.00 0.00 0.00 48 1013.0
20260903203653 97 25 1.7 6.1 0.00 0.00 0.00 48 1012.7
20260903203148 95 234 0.9 6.1 0.00 0.00 0.00 50 1012.7
20260903202643 97 78 3.5 5.2 0.00 0.00 0.00 47 1013.0
20260903202138 96 186 1.7 6.1 0.00 0.00 0.00 48 1013.0
20260903201632 97 11 2.6 7.0 0.00 0.00 0.00 47 1013.2
20260903201132 97 46 3.5 8.7 0.00 0.00 0.00 49 1013.1
20260903200628 97 338 0.9 2.6 0.00 0.00 0.00 49 1013.2
20260903200122 96 314 0.9 3.5 0.00 0.00 0.00 48 1013.2
20260903195618 98 67 1.7 6.1 0.00 0.00 0.00 47 1013.3
20260903195113 97 344 1.7 5.2 0.00 0.00 0.00 47 1013.2
20260903194608 98 8 0.9 5.2 0.00 0.00 0.00 45 1013.2
20260903194103 98 270 2.6 5.2 0.00 0.00 0.00 45 1013.2
20260903193559 97 97 0.9 5.2 0.00 0.00 0.00 46 1013.3
20260903193054 98 253 1.7 2.6 0.00 0.00 0.00 45 1013.3
20260903192551 96 317 0.9 3.5 0.00 0.00 0.00 47 1013.4
20260903192046 97 54 0.9 3.5 0.00 0.00 0.00 49 1013.5
20260903191537 96 286 1.7 7.8 0.00 0.00 0.00 50 1013.4
20260903191037 96 11 2.6 5.2 0.00 0.00 0.00 48 1013.5
20260903190536 95 40 2.6 5.2 0.00 0.00 0.00 49 1013.7
20260903190030 97 71 1.7 3.5 0.00 0.00 0.00 48 1013.7
20260903185526 96 254 1.7 3.5 0.00 0.00 0.00 48 1013.8
20260903185021 95 353 2.6 3.5 0.00 0.00 0.00 50 1013.9
20260903184518 96 0 1.7 6.1 0.00 0.00 0.00 49 1014.0
20260903184017 94 227 2.6 6.1 0.00 0.00 0.00 50 1014.2
20260903183516 94 227 2.6 6.1 0.00 0.00 0.00 50 1014.2
20260903183012 94 14 0.9 5.2 0.00 0.00 0.00 53 1014.2
20260903182510 94 256 0.9 3.5 0.00 0.00 0.00 54 1014.4
20260903182007 95 269 1.7 6.1 0.00 0.00 0.00 49 1014.3
20260903181500 94 227 0.9 5.2 0.00 0.00 0.00 52 1014.4
20260903180959 94 25 2.6 3.5 0.00 0.00 0.00 52 1014.5
20260903180455 93 113 3.5 6.1 0.00 0.00 0.00 52 1014.5
20260903175954 93 55 2.6 7.0 0.00 0.00 0.00 53 1014.5
20260903175448 94 276 1.7 6.1 0.00 0.00 0.00 53 1014.5
20260903174947 93 29 1.7 5.2 0.00 0.00 0.00 54 1014.7
20260903174443 92 115 1.7 5.2 0.00 0.00 0.00 54 1014.7
20260903173942 92 44 3.5 7.0 0.00 0.00 0.00 56 1014.8
20260903173438 93 232 0.9 5.2 0.00 0.00 0.00 55 1014.9
20260903172933 92 71 1.7 7.8 0.00 0.00 0.00 54 1015.0
20260903172428 92 69 2.6 3.5 0.00 0.00 0.00 55 1015.0
20260903171924 92 60 1.7 2.6 0.00 0.00 0.00 55 1014.9
20260903171419 91 223 2.6 3.5 0.00 0.00 0.00 55 1014.9
20260903170919 91 351 0.9 6.1 0.00 0.00 0.00 58 1015.1
20260903170413 92 225 4.3 6.1 0.00 0.00 0.00 55 1015.2
20260903165912 91 75 1.7 6.1 0.00 0.00 0.00 59 1015.2
20260903165407 90 72 1.7 3.5 0.00 0.00 0.00 57 1015.2
20260903164902 92 202 1.7 3.5 0.00 0.00 0.00 56 1015.3
20260903164402 90 342 0.9 2.6 0.00 0.00 0.00 57 1015.3
20260903163901 89 336 0.9 6.1 0.00 0.00 0.00 60 1015.3
20260903163358 90 221 0.9 2.6 0.00 0.00 0.00 58 1015.4
20260903162853 90 271 0.9 1.7 0.00 0.00 0.00 58 1015.5
20260903162350 90 189 0.9 6.1 0.00 0.00 0.00 60 1015.6
20260903161845 89 275 0.9 3.5 0.00 0.00 0.00 60 1015.3
20260903161340 89 332 1.7 3.5 0.00 0.00 0.00 61 1015.5
20260903160836 88 46 0.9 3.5 0.00 0.00 0.00 63 1015.4
20260903160335 87 22 2.6 5.2 0.00 0.00 0.00 64 1015.4
20260903155833 88 274 1.7 3.5 0.00 0.00 0.00 62 1015.3
20260903155329 87 35 1.7 5.2 0.00 0.00 0.00 64 1015.5
20260903154824 87 294 1.7 2.6 0.00 0.00 0.00 65 1015.4
20260903154320 86 53 1.7 7.0 0.00 0.00 0.00 66 1015.4
20260903153816 86 185 1.7 5.2 0.00 0.00 0.00 66 1015.3
20260903153311 85 225 0.9 5.2 0.00 0.00 0.00 66 1015.5
20260903152809 85 42 2.6 5.2 0.00 0.00 0.00 68 1015.5
20260903152306 85 34 1.7 3.5 0.00 0.00 0.00 68 1015.6
20260903151803 84 60 4.3 7.0 0.00 0.00 0.00 68 1015.7
20260903151254 85 241 0.9 3.5 0.00 0.00 0.00 68 1015.8
20260903150753 86 240 1.7 2.6 0.00 0.00 0.00 66 1015.6
20260903150248 84 69 1.7 2.6 0.00 0.00 0.00 69 1015.8